[[{"header":{"parameterUnit":"m.s-1","parameterCategory":1,"la1":30.2991,"la2":30.254,"lo1":-89.0895,"lo2":-89.0444,"dy":0.0017,"dx":0.0017,"nx":28,"ny":28,"refTime":"2023-09-25T21:00:00:Z","depth":0,"parameterNumber":2,"parameterNumberName":"U-component_of_WINDS"},"data":[0,0,0,0,0,0,0,0,0,0,0,0,0,0,0,0,0,0,0,0,0,0,0,0,0,0,0,0,0,0,0,0,0,0,0,0,0,0,0,0,0,0,0,0,0,0,0,0,0,0,0,0,0,0,0,0,0,0,-3.9937,-3.9938,0,-3.9972,-3.9972,-3.9973,-3.9878,-3.9875,-3.9872,-3.9869,-3.9905,-3.9909,-3.9912,0,0,0,0,0,0,0,0,0,0,0,0,0,-3.9789,-3.9793,-3.9937,-3.9938,-3.9938,-3.9972,-3.9972,-3.9973,-3.9878,-3.9875,-3.9871,-3.9868,-3.9904,-3.9908,-3.9913,0,0,0,0,0,0,0,0,0,0,0,0,0,-3.9842,-3.9794,-3.9937,-3.9895,-3.9892,-3.9972,-3.9972,-3.9973,-3.9879,-3.9875,-3.987,-3.9866,-3.9902,-3.9908,-3.9913,-4.0036,0,0,-3.993,-3.9933,0,0,0,0,0,0,0,0,-3.9839,-3.9847,-3.9901,-3.9898,-3.9894,-3.9916,-3.9933,-3.9994,-3.988,-3.9884,-3.9869,-3.9864,-3.9912,-3.9917,-3.9933,-4.0038,-4.0039,-3.9931,-3.9934,-3.9937,-3.9938,0,0,0,0,0,0,0,-3.9836,-3.9845,-3.9951,-3.9902,-3.9898,-3.9874,-3.9877,-3.9944,-3.9922,-3.9883,-3.9876,-3.9882,-3.991,-3.9928,-3.9933,-4.004,-3.9931,-3.9936,-3.9939,-3.9941,-4.0248,-4.0252,0,0,0,0,0,0,-3.9837,-3.9843,-3.995,-3.9952,-3.9855,-3.9881,-3.9884,-3.9914,-3.9921,-3.9918,-3.9885,-3.9877,-3.9921,-3.9927,-3.9934,-4.0079,-3.9937,-3.9942,-3.9945,-4.0243,-4.0249,-4.0254,0,0,0,0,0,0,-3.9834,-3.9848,-3.9948,-3.9896,-3.9907,-3.9888,-3.9922,-3.9917,-3.9935,-3.9923,-3.9919,-3.9908,-3.9917,-3.9926,-4.0012,-4.0079,-3.9944,-3.9949,-4.0237,-4.0245,-4.0252,-4.0369,0,0,0,0,0,0,-3.9831,-3.9847,-3.9894,-3.9897,-3.991,-4.0026,-3.9926,-3.992,-3.9944,-3.9934,-3.9943,-3.9941,-3.9915,-4.0004,-4.0017,-4.0084,-3.9954,-4.0231,-4.0241,-4.0249,-4.0359,-4.038,-4.0397,0,0,0,0,0,-3.9826,-3.9925,-3.9896,-3.991,-3.9967,-4.003,-4.0037,-4.0005,-3.995,-3.9997,-3.9989,-3.994,-4.0069,-4.0013,-4.0028,-4.0097,-4.0227,-4.0238,-4.0249,-4.0351,-4.0376,-4.0397,0,0,0,0,0,0,-3.993,-3.9925,-3.9893,-3.9997,-4.0014,-4.0013,-4.0071,-4.0032,-4.0065,-4.0054,-4.0013,-4.0016,-4.0109,-4.0111,-4.0049,-4.0217,-4.0139,-4.0153,-4.0212,-4.0235,-4.0254,-4.0251,-3.9958,0,0,0,0,0,-3.9965,-4.0016,-4.0009,-4.0101,-4.0111,-4.009,-4.0116,-4.009,-4.0106,-4.0113,-4.0112,-4.013,-4.0175,-4.0205,-4.0245,-4.0359,-4.036,-4.0414,-4.0433,-4.0448,-4.0461,-4.0522,-4.0546,-4.029,-4.029,-4.0289,0,0,-4.0037,-4.0041,-4.0076,-4.0122,-4.0132,-4.0186,-4.0097,-4.0157,-4.0197,-4.0122,-4.0203,-4.0203,-4.0221,-4.0321,-4.0365,-4.0326,-4.0532,-4.0462,-4.0475,-4.0479,-4.0536,-4.056,-4.0582,-4.0297,-4.0296,-4.0295,0,0,-4.0198,-4.0206,-4.0284,-4.0296,-4.0313,-4.0299,-4.0318,-4.0323,-4.032,-4.04,-4.0346,-4.0392,-4.047,-4.0485,-4.0503,-4.067,-4.0626,-4.0684,-4.0783,-4.0843,-4.0863,-4.0881,-4.0941,-4.0963,-4.0697,-4.0697,-4.0697,0,-4.0286,-4.0365,-4.0329,-4.0393,-4.0415,-4.0351,-4.043,-4.0443,-4.0473,-4.049,-4.0446,-4.0542,-4.0549,-4.0652,-4.0693,-4.071,-4.073,-4.0683,-4.0863,-4.088,-4.0896,-4.0953,-4.0976,-4.0704,-4.0703,-4.0703,-4.0702,0,-4.0473,-4.0529,-4.059,-4.062,-4.0649,-4.0721,-4.0696,-4.0729,-4.0701,-4.0691,-4.0774,-4.0781,-4.0821,-4.0844,-4.0817,-4.0944,-4.0919,-4.087,-4.079,-4.0928,-4.0981,-4.1002,-4.0714,-4.0712,-4.0709,-4.0708,0,0,-4.0699,-4.071,-4.0733,-4.0746,-4.0761,-4.0803,-4.0872,-4.0912,-4.0942,-4.0965,-4.1022,-4.1089,-4.1044,-4.1064,-4.1038,-4.1091,-4.1223,-4.1034,-4.1034,-4.107,-4.1364,-4.1402,-4.1428,-4.1194,-4.1198,-4.1201,-4.1363,0,-4.0858,-4.0976,-4.0946,-4.1063,-4.1114,-4.1054,-4.1114,-4.113,-4.1123,-4.1165,-4.1157,-4.1206,-4.1142,-4.1154,-4.1203,-4.1197,-4.1282,-4.1185,-4.1247,-4.125,-4.1245,-4.1455,-4.1494,-4.1647,-4.1383,-4.1387,-4.1389,0,-4.1058,-4.1089,-4.1212,-4.1219,-4.1239,-4.1294,-4.1329,-4.137,-4.1387,-4.1378,-4.1401,-4.1365,-4.1433,-4.1354,-4.1447,-4.1382,-4.1406,-4.1407,-4.1412,-4.1416,-4.1328,-4.1466,-4.1694,-4.1717,-4.1421,-4.1419,-4.1416,0,-4.1211,-4.1284,-4.1367,-4.138,-4.139,-4.143,-4.1436,-4.1449,-4.1475,-4.1505,-4.1522,-4.156,-4.1581,-4.1611,-4.1586,-4.1531,-4.1685,-4.1603,-4.1679,-4.168,-4.1714,-4.1713,-4.1951,-4.173,-4.173,-4.1729,-4.1729,0,-4.1392,-4.1469,-4.1436,-4.1487,-4.1573,-4.1538,-4.1623,-4.1622,-4.1634,-4.1684,-4.1634,-4.1682,-4.1646,-4.1691,-4.1672,-4.1753,-4.1763,-4.1758,-4.1752,-4.1762,-4.1763,-4.1777,-4.1766,-4.1735,-4.1734,-4.1733,-4.1732,0,-4.1577,-4.1558,-4.1645,-4.1648,-4.165,-4.1713,-4.1715,-4.1763,-4.1752,-4.1816,-4.1829,-4.1813,-4.1863,-4.1842,-4.1895,-4.1882,-4.1986,-4.1966,-4.1981,-4.1975,-4.2053,-4.2046,-4.2309,-4.2341,-4.21,-4.2102,-4.2104,0,-4.1693,-4.1752,-4.1761,-4.1791,-4.1801,-4.185,-4.1877,-4.1845,-4.1874,-4.1899,-4.1943,-4.199,-4.2025,-4.2109,-4.2102,-4.2142,-4.2123,-4.2212,-4.2129,-4.2138,-4.2124,-4.2121,-4.2127,-4.2229,-4.2232,-4.2234,-4.2236,0,-4.1902,-4.189,-4.193,-4.1968,-4.2002,-4.203,-4.2053,-4.2081,-4.205,-4.2086,-4.2137,-4.2165,-4.2219,-4.2266,-4.2302,-4.2308,-4.2268,-4.2262,-4.2282,-4.2293,-4.2299,-4.2297,-4.2026,-4.2256,-4.2254,-4.2253,-4.2252,-4.2251,-4.2057,-4.2106,-4.2121,-4.2168,-4.2182,-4.2206,-4.2251,-4.2246,-4.2288,-4.233,-4.2309,-4.2369,-4.2384,-4.2428,-4.244,-4.2487,-4.2452,-4.2481,-4.2488,-4.2495,-4.2506,-4.2292,-4.2493,-4.2493,-4.2492,-4.2492,-4.2491,0,-4.2263,-4.2269,-4.2313,-4.2348,-4.2385,-4.2344,-4.2368,-4.2402,-4.2455,-4.2473,-4.2509,-4.2569,-4.2614,-4.2611,-4.2653,-4.269,-4.2673,-4.2702,-4.2699,-4.2701,-4.2535,-4.2513,-4.2716,-4.2716,-4.2716,-4.2716,-4.2716,-4.2716,-4.2374,-4.2456,-4.2446,-4.2534,-4.254,-4.2598,-4.2616,-4.2638,-4.2652,-4.272,-4.2758,-4.2756,-4.2765,-4.2808,-4.2847,-4.2845,-4.2863,-4.29,-4.2891,-4.2735,-4.2713,-4.2692,-4.2672,-4.2904,-4.2904,-4.3054,-4.3055,-4.3056]},{"header":{"parameterUnit":"m.s-1","parameterCategory":1,"la1":30.2991,"la2":30.254,"lo1":-89.0895,"lo2":-89.0444,"dy":0.0017,"dx":0.0017,"nx":28,"ny":28,"refTime":"2023-09-25T21:00:00:Z","depth":0,"parameterNumber":3,"parameterNumberName":"V-component_of_WINDS"},"data":[0,0,0,0,0,0,0,0,0,0,0,0,0,0,0,0,0,0,0,0,0,0,0,0,0,0,0,0,0,0,0,0,0,0,0,0,0,0,0,0,0,0,0,0,0,0,0,0,0,0,0,0,0,0,0,0,0,0,-3.2619,-3.2619,0,-3.2586,-3.2586,-3.2586,-3.2521,-3.2519,-3.2518,-3.2517,-3.2484,-3.2484,-3.2484,0,0,0,0,0,0,0,0,0,0,0,0,0,-3.2627,-3.2627,-3.2619,-3.2619,-3.2619,-3.2586,-3.2586,-3.2585,-3.2521,-3.2519,-3.2518,-3.2516,-3.2484,-3.2484,-3.2484,0,0,0,0,0,0,0,0,0,0,0,0,0,-3.2612,-3.2627,-3.2619,-3.2582,-3.2579,-3.2586,-3.2586,-3.2585,-3.2521,-3.2519,-3.2517,-3.2515,-3.2483,-3.2484,-3.2484,-3.2526,0,0,-3.2486,-3.2486,0,0,0,0,0,0,0,0,-3.2613,-3.2612,-3.2588,-3.2585,-3.2581,-3.2555,-3.2576,-3.2565,-3.2522,-3.2543,-3.2517,-3.2514,-3.2509,-3.2507,-3.2505,-3.2524,-3.2523,-3.2486,-3.2486,-3.2486,-3.2486,0,0,0,0,0,0,0,-3.2614,-3.2613,-3.2606,-3.2588,-3.2583,-3.2567,-3.2563,-3.2574,-3.2537,-3.2541,-3.2536,-3.2533,-3.2507,-3.2505,-3.2504,-3.2522,-3.2486,-3.2486,-3.2487,-3.2487,-3.2572,-3.2574,0,0,0,0,0,0,-3.262,-3.2614,-3.2607,-3.2605,-3.2592,-3.2569,-3.2564,-3.2566,-3.2537,-3.2531,-3.2535,-3.253,-3.2505,-3.2504,-3.2503,-3.2548,-3.2486,-3.2487,-3.2487,-3.257,-3.2573,-3.2575,0,0,0,0,0,0,-3.2621,-3.262,-3.2609,-3.2608,-3.2606,-3.2571,-3.2573,-3.2566,-3.2564,-3.2532,-3.2525,-3.254,-3.2504,-3.2502,-3.252,-3.2546,-3.2487,-3.2487,-3.2568,-3.2571,-3.2574,-3.2641,0,0,0,0,0,0,-3.2621,-3.2621,-3.2636,-3.2609,-3.2606,-3.2627,-3.2575,-3.2567,-3.2565,-3.2559,-3.2535,-3.2529,-3.2502,-3.252,-3.2521,-3.2546,-3.2488,-3.2565,-3.2569,-3.2573,-3.2636,-3.2646,-3.2654,0,0,0,0,0,-3.2622,-3.2657,-3.2637,-3.2637,-3.2624,-3.2629,-3.2627,-3.2594,-3.2568,-3.2583,-3.2562,-3.253,-3.2544,-3.2522,-3.2523,-3.2549,-3.2563,-3.2568,-3.2572,-3.2632,-3.2644,-3.2654,0,0,0,0,0,0,-3.2688,-3.2653,-3.2631,-3.2658,-3.2647,-3.2618,-3.2636,-3.2608,-3.2604,-3.2598,-3.2558,-3.2554,-3.2577,-3.2564,-3.2541,-3.2587,-3.2548,-3.2553,-3.2594,-3.2605,-3.2614,-3.2616,-3.2488,0,0,0,0,0,-3.2706,-3.2713,-3.2681,-3.2708,-3.2704,-3.2671,-3.2672,-3.2647,-3.2634,-3.2629,-3.261,-3.2598,-3.26,-3.2602,-3.2601,-3.2634,-3.2628,-3.2652,-3.2661,-3.2669,-3.2673,-3.2689,-3.2699,-3.2589,-3.2589,-3.2589,0,0,-3.2743,-3.2725,-3.2731,-3.2721,-3.271,-3.2717,-3.2667,-3.2677,-3.2682,-3.2631,-3.2646,-3.2632,-3.2616,-3.2642,-3.2652,-3.2632,-3.2702,-3.2674,-3.2681,-3.2681,-3.2694,-3.2705,-3.2714,-3.2592,-3.2592,-3.2591,0,0,-3.2815,-3.2801,-3.2822,-3.2811,-3.2794,-3.2772,-3.2777,-3.2752,-3.274,-3.2755,-3.2716,-3.2722,-3.2725,-3.2715,-3.2711,-3.2778,-3.2748,-3.2779,-3.2825,-3.2841,-3.285,-3.2857,-3.288,-3.2889,-3.2783,-3.2784,-3.2784,0,-3.2863,-3.2872,-3.2836,-3.2849,-3.2845,-3.2798,-3.2819,-3.281,-3.2795,-3.2793,-3.2771,-3.2774,-3.276,-3.2782,-3.2798,-3.2797,-3.2801,-3.2781,-3.2851,-3.2858,-3.2865,-3.2886,-3.2895,-3.2787,-3.2787,-3.2787,-3.2786,0,-3.2932,-3.2939,-3.2958,-3.2943,-3.2942,-3.2958,-3.2925,-3.2928,-3.2904,-3.2884,-3.29,-3.2881,-3.2876,-3.288,-3.2857,-3.2898,-3.2886,-3.2859,-3.2819,-3.288,-3.2899,-3.2907,-3.2793,-3.2791,-3.279,-3.2789,0,0,-3.3045,-3.3009,-3.3017,-3.3009,-3.2986,-3.2991,-3.3005,-3.3,-3.3003,-3.2993,-3.3004,-3.3007,-3.2981,-3.2976,-3.2951,-3.2965,-3.3018,-3.2935,-3.2934,-3.2951,-3.3062,-3.3083,-3.3093,-3.2999,-3.3,-3.3001,-3.3063,0,-3.311,-3.3132,-3.31,-3.313,-3.3135,-3.3091,-3.3103,-3.309,-3.3072,-3.3074,-3.3054,-3.3057,-3.3022,-3.3019,-3.303,-3.3009,-3.304,-3.3005,-3.3008,-3.3008,-3.3012,-3.3103,-3.3126,-3.3185,-3.3071,-3.3072,-3.3073,0,-3.319,-3.3184,-3.3213,-3.3188,-3.3189,-3.3201,-3.3193,-3.3195,-3.318,-3.3166,-3.316,-3.313,-3.3142,-3.3104,-3.3119,-3.3096,-3.3095,-3.3085,-3.3087,-3.3085,-3.3044,-3.3104,-3.3203,-3.3212,-3.3085,-3.3084,-3.3083,0,-3.3268,-3.3267,-3.3285,-3.3279,-3.3251,-3.326,-3.3248,-3.3231,-3.3229,-3.3222,-3.3221,-3.3215,-3.3212,-3.3209,-3.3178,-3.3154,-3.3197,-3.3157,-3.3185,-3.3186,-3.3196,-3.3195,-3.3296,-3.3197,-3.3196,-3.3196,-3.3196,0,-3.3345,-3.3365,-3.3319,-3.333,-3.3351,-3.3314,-3.3335,-3.3319,-3.3304,-3.331,-3.3271,-3.3278,-3.3238,-3.324,-3.3217,-3.3232,-3.3232,-3.322,-3.3213,-3.3223,-3.3224,-3.3222,-3.3217,-3.3199,-3.3198,-3.3198,-3.3197,0,-3.3436,-3.3406,-3.3422,-3.3393,-3.3386,-3.3403,-3.3378,-3.3387,-3.3365,-3.3374,-3.3374,-3.3341,-3.3342,-3.3311,-3.3306,-3.329,-3.3316,-3.3302,-3.3321,-3.3316,-3.3346,-3.3343,-3.3447,-3.3459,-3.3353,-3.3354,-3.3355,0,-3.3486,-3.35,-3.3473,-3.3474,-3.3465,-3.3468,-3.3465,-3.343,-3.3429,-3.3412,-3.3422,-3.342,-3.3416,-3.3419,-3.3395,-3.339,-3.3375,-3.3412,-3.3375,-3.3384,-3.3375,-3.3374,-3.3375,-3.342,-3.3422,-3.3423,-3.3423,0,-3.3579,-3.3564,-3.3562,-3.3555,-3.3554,-3.3547,-3.3538,-3.3541,-3.3501,-3.3503,-3.3503,-3.35,-3.3494,-3.3492,-3.3482,-3.347,-3.344,-3.3436,-3.3442,-3.3451,-3.3462,-3.3456,-3.3342,-3.3433,-3.3432,-3.3432,-3.3431,-3.3431,-3.3651,-3.3661,-3.3643,-3.3642,-3.3631,-3.3623,-3.3629,-3.3609,-3.3608,-3.36,-3.3579,-3.3583,-3.3566,-3.355,-3.354,-3.3542,-3.3524,-3.3533,-3.3535,-3.3538,-3.3543,-3.3462,-3.3541,-3.354,-3.354,-3.354,-3.354,0,-3.3741,-3.3727,-3.3727,-3.3714,-3.3714,-3.3685,-3.3673,-3.3675,-3.3678,-3.3665,-3.3662,-3.3661,-3.3659,-3.3634,-3.3628,-3.3634,-3.362,-3.3634,-3.3633,-3.363,-3.356,-3.3555,-3.3645,-3.3645,-3.3645,-3.3645,-3.3645,-3.3645,-3.3788,-3.3803,-3.3785,-3.3794,-3.378,-3.3783,-3.3778,-3.377,-3.3759,-3.3761,-3.3758,-3.3742,-3.3724,-3.3716,-3.3712,-3.3705,-3.3704,-3.3722,-3.3711,-3.3646,-3.3635,-3.3626,-3.3621,-3.3723,-3.3723,-3.378,-3.3781,-3.3781]}]]